STARLINK-35390

Last updated on Mon Oct 20 2025 00:02:07 GMT+0000 (Coordinated Universal Time)

1 65796U 25218F 25292.26466930 .00109527 00000+0 19846-2 0 9990 2 65796 97.6021 152.8381 0001589 93.1955 266.9477 15.49231321 3648
UTC large
Height (km)
Speed (km/s)
/
Latitude / Longitude
Inclination (degrees)
Orbital Period (minutes)
Azimuth
Elevation
Range (km)
Doppler Factor

Next 0 passes for location: London (51.5072 / 0.1276)

Sorry there are no passes over London.